Regional Weather Roundup
Issued by NWS State College, PA

Home | Current Version | Previous Version | Graphics & Text | Print | Product List | Glossary Off
Versions: 1 2 3 4 5 6 7 8 9 10 11 12 13 14 15 16 17 18 19 20 21 22 23 24 25 26 27 28 29 30 31 32 33 34 35 36 37 38 39 40 41 42 43 44 45 46 47 48 49 50

944
ASUS41 KCTP 130703
RWRCTP

REGIONAL WEATHER ROUNDUP
NATIONAL WEATHER SERVICE STATE COLLEGE PA
200 AM EST SAT FEB 13 2016

Note: "fair" indicates few or no clouds below 12,000 feet with no
significant weather and/or obstructions to visibility.

* = STATION THAT DOES NOT REPORT PRECIPITATION /E.G. RAIN...SNOW...ETC/
    THUNDER OR FOG.

PAZ002>004-007>009-013>016-020>023-029>032-130800-
WESTERN PENNSYLVANIA

CITY           SKY/WX    TMP DP  RH WIND       PRES   REMARKS
ERIE           LGT SNOW  15   3  59 NW22G31   30.09R WCI  -3
MEADVILLE      HAZE      10   4  76 NW13G28   30.03R VSB 1   WCI  -5
FRANKLIN*      CLOUDY    10   1  67 NW6       30.02R VSB 1   WCI   1
NEW CASTLE     FLURRIES  12   5  73 NW15G24   30.10R WCI  -4
BEAVER COUNTY  NOT AVBL
BUTLER*        MOCLDY    12   7  79 W13G20    30.07R WCI  -3
PITTSBURGH INT FLURRIES  14   8  77 W12       30.06R WCI   0
PITTSBURGH     CLOUDY    16   8  71 W20G25    30.04R WCI  -1
INDIANA*       CLOUDY    14   7  73 NW14G23   30.00R WCI  -1
LATROBE        LGT SNOW  14  12  92 W13G22    30.04R WCI   0
WASHINGTON CO* MOCLDY    16   5  62 W10G21    30.08R WCI   3
$$

PAZ004>006-010>012-017>019-024>028-033>037-041-042-045-046-049>053-130800-
CENTRAL PENNSYLVANIA

CITY           SKY/WX    TMP DP  RH WIND       PRES   REMARKS
BRADFORD       MOCLDY     7  -1  70 NW18G25   29.86R WCI -12
DUBOIS         CLOUDY    10   1  67 NW17G31   29.91R HAZE    WCI  -8
CLEARFIELD     CLOUDY    14   5  67 W13G22    29.90R WCI   0
JOHNSTOWN      MOCLDY    11   1  64 W16       29.87R WCI  -6
ALTOONA        PTCLDY    15   4  61 NW14G24   29.92R WCI   0
STATE COLLEGE  PTCLDY    16   6  63 W17       29.90R WCI   0
WILLIAMSPORT   PTCLDY    19  12  74 W9        29.89S WCI   8
SELINSGROVE    CLEAR     19  10  68 W5        29.92S WCI  12
FT INDIANTOWN  PTCLDY    15  14  99 W2        29.92S
CAPITAL CITY   PTCLDY    18  10  71 W8        29.93F WCI   8
HARRISBURG     PTCLDY    20  12  71 NW7       29.93F WCI  11
YORK           CLEAR     15  10  80 W5        29.93F WCI   8
$$

PAZ038>040-043-044-047-048-054-055-060>062-067>071-130800-
EASTERN PENNSYLVANIA

CITY           SKY/WX    TMP DP  RH WIND       PRES   REMARKS
SCRANTON       CLOUDY    18  12  77 SW8       29.83F WCI   8
MOUNT POCONO   LGT SNOW  13   8  81 W12       29.74F WCI  -1
ALLENTOWN      CLOUDY    18  13  80 SW5       29.90F WCI  11
QUAKERTOWN*    PTSUNNY   18  16  93 W5        29.90F WCI  11
READING        MOCLDY    18  14  84 CALM      29.92F
LANCASTER      FOG       15  14  95 W3        29.93S VSB 1
COATESVILLE    SUNNY     18  18 100 VRB3      29.92F
POTTSTOWN      CLOUDY    19  14  81 CALM      29.93F
BLUE BELL        N/A     21  16  79 W3        29.92F
DOYLESTOWN     CLOUDY    18  14  84 W6        29.90F WCI  10
WILLOW GROVE   NOT AVBL
NORTH PHILA    CLOUDY    23  14  68 W10       29.94F WCI  12
PHILADELPHIA   CLOUDY    23  15  71 W10       29.96F WCI  12
$$




USA.gov is the U.S. government's official web portal to all federal, state and local government web resources and services.